Location: Carole Heights
(41.1624°N, 111.9588°W)
Time: 14:10:58
(UTC+00:00)

Envisat - Visible Passes

Search period start: 25 February 2021 00:00
Search period end: 07 March 2021 00:00
Orbit: 764 x 766 km, 98.1° (Epoch: 24 February)

Date Brightness Start Highest point End Pass type
(mag) Time Alt. Az. Time Alt. Az. Time Alt. Az.
25 Feb 6.2 01:38:42 10° SW 01:41:46 16° W 01:44:51 10° NW visible
25 Feb 5.6 12:07:10 10° NE 12:10:55 20° E 12:14:39 10° SE visible
26 Feb 3.1 13:08:19 10° NNE 13:13:26 80° ESE 13:18:30 10° S visible
27 Feb 4.7 12:31:51 10° NNE 12:36:30 35° E 12:41:08 10° SSE visible
28 Feb 5.9 11:56:18 10° NE 11:59:23 16° E 12:02:27 10° SE visible
28 Feb 3.1 13:33:47 10° N 13:38:46 59° WNW 13:43:45 10° SSW visible
01 Mar 3.5 12:56:56 10° NNE 13:01:59 63° E 13:07:01 10° S visible
02 Mar 6.8 01:54:25 10° WSW 01:55:55 11° W 01:57:25 10° WNW visible
02 Mar 5.1 12:20:40 10° NE 12:25:01 28° E 12:29:20 10° SSE visible
03 Mar 6.1 11:45:45 10° ENE 11:47:49 12° E 11:49:54 10° ESE visible
03 Mar 3.0 13:22:18 10° N 13:27:23 75° WNW 13:32:26 10° SSW visible
04 Mar 4.0 12:45:36 10° NNE 12:50:32 49° E 12:55:26 10° S visible
05 Mar 5.5 12:09:34 10° NE 12:13:30 22° E 12:17:24 10° SE visible
06 Mar 3.1 13:10:51 10° NNE 13:15:58 87° ESE 13:21:02 10° SSW visible
